Location: ???? ???? ?????
(31.2680°N, 31.7283°E)
Time: 04:32:18
(UTC+00:00)

Cosmos 1295 Rocket - Pass Details

Date: 13 July 2020
Orbit: 944 x 994 km, 82.9° (Epoch: 11 August)

Event Time Altitude Azimuth Distance (km) Brightness Sun altitude
Exits shadow 19:56:51 70° 239° (WSW) 1,006 4.4 -29.5°
Maximum altitude 19:57:19 74° 276° (W) 988 4.5 -29.6°
Drops below altitude 10° 20:03:25 10° 2° (N) 2,670 7.4 -30.3°
Sets 20:05:54 0° 4° (N) 3,615 8.2 -30.5°
